Powrót do katalogu

FREGAT DEB

LostUNKNOWN
NORAD 48492·DEBRIS·🇷🇺 Russia

Wystrzelony Jul 18, 2011 z Baikonur Cosmodrome

Loading…

Następne Przeloty (najbliższe 24 godziny)

TLE

NieaktualneSource: Space-Track

Epoka: Jun 23, 2021, 00:08 UTC

1 48492U 11037NX  21174.00595297  .00134972  00000-0  27791+0 0  9992
2 48492  51.4726  58.5939 2295464 183.8545 174.1251  9.86108316 15121

Śledź FREGAT DEB w czasie rzeczywistym z AllMySat

Download on the App Store